Home   Weather   Lafayette   Past weeks

Flag for USA Past Weather in Lafayette, Indiana, USA — Yesterday and Last 2 Weeks

48 °F

Partly sunny.

Feels Like: 43 °F
Forecast: 45 / 60 °F
Wind: 12 mph from Southeast

Location: Purdue University Airport

Current Time: Oct 26, 2016 at 11:27:11 AM

Latest Report: Oct 26, 2016 at 10:54 AM

Visibility: 10 mi

Pressure: 30.23 "Hg

Humidity: 77%

Dew Point: 41 °F

Location of LafayetteLocation

Past Weather in Lafayette — Graph


Lafayette Temperature Yesterday

Maximum temperature yesterday: 53 °F (at 2:54 PM)
Minimum temperature yesterday: 37 °F (at 5:54 AM)
Average temperature yesterday: 46 °F

High & Low Weather Summary for the Past Weeks

High82 °F (Oct 17, 3:54 PM)100% (Oct 14, 1:54 AM)30.45 "Hg (Oct 14, 1:54 AM)
Low33 °F (Oct 22, 7:54 AM)37% (Oct 11, 3:54 PM)29.61 "Hg (Oct 17, 10:54 PM)
Average57 °F78%30.08 "Hg
* Reported Oct 11 9:54 AM — Oct 26 9:54 AM, Lafayette, Weather by CustomWeather, © 2016

Note: Actual official high and low records may vary slightly from our data, if they occured in-between our weather recording intervals... More about our weather records


Lafayette Weather History for the Previous 24 Hours

Scroll right to see more
Time TempWeatherWind HumidityBarometerVisibility
9:54 AM
Wed, Oct 26
46 °FPartly sunny.13 mph83%30.24 "Hg10 mi
8:54 AM45 °FPartly sunny.14 mph86%30.24 "Hg10 mi
3:54 AM46 °FLight rain. Overcast.10 mph79%30.30 "Hg10 mi
2:54 AM48 °FMostly cloudy.10 mph68%30.31 "Hg10 mi
1:54 AM49 °FOvercast.8 mph66%30.33 "Hg10 mi
12:54 AM48 °FOvercast.10 mph68%30.33 "Hg10 mi
11:54 PM
Tue, Oct 25
47 °FPassing clouds.10 mph71%30.34 "Hg10 mi
10:54 PM48 °FMostly cloudy.9 mph71%30.34 "Hg10 mi
9:54 PM48 °FOvercast.10 mph71%30.36 "Hg10 mi
8:54 PM49 °FOvercast.9 mph69%30.37 "Hg10 mi
7:54 PM50 °FMostly cloudy.6 mph68%30.36 "Hg10 mi
6:54 PM50 °FOvercast.9 mph68%30.34 "Hg10 mi
5:54 PM51 °FOvercast.10 mph66%30.35 "Hg10 mi
4:54 PM52 °FPartly sunny.12 mph66%30.35 "Hg10 mi
3:54 PM53 °FPartly sunny.10 mph64%30.37 "Hg10 mi
2:54 PM53 °FSunny.10 mph64%30.39 "Hg10 mi
1:54 PM52 °FPassing clouds.8 mph66%30.42 "Hg10 mi
12:54 PM50 °FSunny.10 mph71%30.43 "Hg10 mi
11:54 AM47 °FScattered clouds.13 mph74%30.44 "Hg10 mi
Weather by CustomWeather, © 2016

See weather overviewHow to use our weather pages